�������l�o���
Date,Time,MP-1(��Sv/h),MP-2(��Sv/h),MP-3(��Sv/h),MP-4(��Sv/h),MP-5(��Sv/h),MP-6(��Sv/h),MP-7(��Sv/h),MP-8(��Sv/h),����,����(m/s),���J
2022/07/17,00:00,0.579,0.815,0.525,0.978,0.686,0.338,0.582,0.552,��,5.0,��
2022/07/17,00:10,0.580,0.814,0.524,0.980,0.685,0.338,0.582,0.551,��쐼,5.3,��
2022/07/17,00:20,0.578,0.815,0.527,0.979,0.687,0.338,0.582,0.551,��,5.0,��
2022/07/17,00:30,0.580,0.814,0.525,0.981,0.686,0.337,0.582,0.551,��,4.2,��
2022/07/17,00:40,0.580,0.814,0.526,0.980,0.684,0.337,0.582,0.553,��,3.7,��
2022/07/17,00:50,0.579,0.816,0.526,0.979,0.686,0.337,0.581,0.551,��쐼,4.0,��
2022/07/17,01:00,0.579,0.815,0.525,0.980,0.687,0.338,0.580,0.551,��쐼,4.3,�L
2022/07/17,01:10,0.581,0.817,0.529,0.983,0.686,0.340,0.584,0.551,��쐼,2.2,�L
2022/07/17,01:20,0.579,0.818,0.526,0.982,0.686,0.339,0.581,0.551,��쓌,3.4,�L
2022/07/17,01:30,0.580,0.819,0.527,0.983,0.687,0.339,0.581,0.551,��쓌,5.1,�L
2022/07/17,01:40,0.580,0.816,0.525,0.981,0.687,0.338,0.581,0.550,��쓌,6.2,�L
2022/07/17,01:50,0.581,0.815,0.525,0.981,0.684,0.339,0.581,0.550,��,6.4,�L
2022/07/17,02:00,0.580,0.814,0.526,0.981,0.684,0.338,0.581,0.551,��,5.3,�L
2022/07/17,02:10,0.580,0.816,0.526,0.980,0.682,0.338,0.582,0.551,��,4.6,�L
2022/07/17,02:20,0.579,0.814,0.526,0.981,0.684,0.338,0.582,0.548,��,4.8,��
2022/07/17,02:30,0.579,0.813,0.524,0.977,0.684,0.338,0.582,0.549,��쓌,4.4,��
2022/07/17,02:40,0.578,0.812,0.524,0.981,0.684,0.337,0.581,0.551,��,4.9,��
2022/07/17,02:50,0.580,0.813,0.524,0.981,0.684,0.336,0.582,0.551,��,5.3,�L
2022/07/17,03:00,0.579,0.814,0.524,0.982,0.682,0.336,0.580,0.550,��,4.7,�L
2022/07/17,03:10,0.580,0.813,0.524,0.981,0.683,0.336,0.582,0.550,��,3.2,�L
2022/07/17,03:20,0.579,0.814,0.526,0.981,0.684,0.338,0.582,0.550,��쐼,3.4,�L
2022/07/17,03:30,0.579,0.814,0.523,0.979,0.684,0.338,0.582,0.549,��,3.2,�L
2022/07/17,03:40,0.578,0.815,0.524,0.980,0.686,0.337,0.583,0.550,��,3.1,�L
2022/07/17,03:50,0.579,0.815,0.525,0.981,0.686,0.337,0.581,0.552,��,3.9,�L
2022/07/17,04:00,0.580,0.816,0.524,0.978,0.686,0.338,0.581,0.549,��,5.1,�L
2022/07/17,04:10,0.579,0.816,0.526,0.983,0.686,0.337,0.582,0.550,��쓌,5.3,��
2022/07/17,04:20,0.579,0.816,0.525,0.980,0.686,0.335,0.582,0.551,��,3.2,��
2022/07/17,04:30,0.580,0.817,0.523,0.979,0.686,0.337,0.583,0.549,��,3.5,�L
2022/07/17,04:40,0.580,0.817,0.524,0.980,0.686,0.338,0.582,0.548,��,4.1,�L
2022/07/17,04:50,0.579,0.816,0.525,0.982,0.686,0.339,0.581,0.551,��,4.7,��
2022/07/17,05:00,0.579,0.818,0.524,0.981,0.686,0.336,0.582,0.551,��,3.3,��
2022/07/17,05:10,0.577,0.815,0.523,0.981,0.688,0.336,0.582,0.551,��,4.8,��
2022/07/17,05:20,0.577,0.817,0.524,0.979,0.687,0.337,0.582,0.549,��,4.1,��
2022/07/17,05:30,0.579,0.816,0.523,0.981,0.685,0.338,0.583,0.550,��,3.2,�L
2022/07/17,05:40,0.578,0.814,0.522,0.980,0.684,0.337,0.584,0.550,��,3.8,��
2022/07/17,05:50,0.579,0.816,0.523,0.978,0.686,0.338,0.583,0.551,��,3.7,��
2022/07/17,06:00,0.579,0.816,0.522,0.979,0.686,0.336,0.581,0.550,��,3.9,��
2022/07/17,06:10,0.580,0.815,0.525,0.980,0.685,0.337,0.583,0.551,��,3.5,�L
2022/07/17,06:20,0.579,0.814,0.524,0.979,0.687,0.338,0.583,0.550,��쓌,3.0,�L
2022/07/17,06:30,0.578,0.815,0.524,0.980,0.686,0.336,0.581,0.550,��,3.3,��
2022/07/17,06:40,0.579,0.816,0.524,0.982,0.685,0.337,0.582,0.550,��쓌,3.6,��
2022/07/17,06:50,0.578,0.815,0.524,0.980,0.686,0.338,0.582,0.550,��쓌,3.5,��
2022/07/17,07:00,0.579,0.816,0.524,0.981,0.685,0.338,0.581,0.551,��,3.2,��
2022/07/17,07:10,0.577,0.816,0.524,0.981,0.686,0.337,0.583,0.550,��,2.8,��
2022/07/17,07:20,0.580,0.815,0.525,0.981,0.684,0.337,0.582,0.550,��쓌,3.3,��
2022/07/17,07:30,0.578,0.816,0.525,0.981,0.687,0.336,0.581,0.549,��,3.3,��
2022/07/17,07:40,0.577,0.814,0.524,0.978,0.686,0.336,0.581,0.550,��,3.1,��
2022/07/17,07:50,0.578,0.817,0.525,0.980,0.686,0.335,0.581,0.548,��쓌,3.1,��
2022/07/17,08:00,0.579,0.815,0.525,0.977,0.687,0.336,0.582,0.549,��쓌,3.0,��
2022/07/17,08:10,0.578,0.816,0.525,0.981,0.686,0.337,0.582,0.549,��,3.5,��
2022/07/17,08:20,0.580,0.817,0.525,0.979,0.686,0.336,0.581,0.549,��,2.6,��
2022/07/17,08:30,0.579,0.816,0.524,0.981,0.687,0.336,0.580,0.548,��쓌,2.6,��
2022/07/17,08:40,0.580,0.815,0.525,0.980,0.685,0.337,0.580,0.549,��쓌,2.2,��
2022/07/17,08:50,0.579,0.817,0.524,0.982,0.687,0.337,0.581,0.548,�쓌,2.0,��
2022/07/17,09:00,0.580,0.817,0.524,0.977,0.687,0.337,0.582,0.549,��쓌,3.6,��
2022/07/17,09:10,0.579,0.818,0.525,0.980,0.687,0.337,0.580,0.548,��쓌,2.6,��
2022/07/17,09:20,0.580,0.815,0.524,0.979,0.688,0.337,0.582,0.548,��쓌,3.6,��
2022/07/17,09:30,0.579,0.817,0.525,0.978,0.688,0.337,0.583,0.550,��쓌,3.8,��
2022/07/17,09:40,0.580,0.817,0.525,0.980,0.689,0.337,0.583,0.547,��쓌,4.5,��
2022/07/17,09:50,0.578,0.819,0.523,0.981,0.686,0.338,0.580,0.548,��쓌,3.5,��
2022/07/17,10:00,0.579,0.817,0.525,0.981,0.689,0.339,0.582,0.550,�쓌,2.6,��
2022/07/17,10:10,0.581,0.818,0.524,0.981,0.688,0.337,0.583,0.550,�쓌,3.6,��
2022/07/17,10:20,0.581,0.819,0.523,0.980,0.691,0.340,0.582,0.549,��쓌,4.9,��
2022/07/17,10:30,0.580,0.820,0.526,0.980,0.690,0.339,0.583,0.549,��쓌,6.5,��
2022/07/17,10:40,0.583,0.819,0.526,0.981,0.691,0.337,0.583,0.550,��쓌,6.3,��
2022/07/17,10:50,0.581,0.820,0.526,0.980,0.691,0.337,0.583,0.549,��,6.5,��
2022/07/17,11:00,0.582,0.819,0.526,0.981,0.690,0.339,0.583,0.550,��쓌,7.3,�L
2022/07/17,11:10,0.583,0.819,0.525,0.981,0.691,0.339,0.584,0.549,��쓌,7.1,�L
2022/07/17,11:20,0.583,0.819,0.526,0.981,0.693,0.339,0.585,0.550,��쓌,6.1,��
2022/07/17,11:30,0.582,0.820,0.527,0.982,0.691,0.338,0.583,0.550,��쓌,6.1,��
2022/07/17,11:40,0.584,0.820,0.526,0.981,0.693,0.338,0.583,0.550,��쓌,8.5,��
2022/07/17,11:50,0.583,0.823,0.526,0.980,0.693,0.340,0.585,0.552,��쓌,6.8,��
2022/07/17,12:00,0.583,0.821,0.527,0.983,0.694,0.340,0.586,0.551,��,6.1,��
2022/07/17,12:10,0.584,0.822,0.528,0.981,0.692,0.341,0.585,0.552,��,5.2,��
2022/07/17,12:20,0.584,0.822,0.527,0.982,0.697,0.340,0.585,0.552,��,3.3,��
2022/07/17,12:30,0.586,0.823,0.529,0.982,0.696,0.341,0.584,0.552,��,6.2,��
2022/07/17,12:40,0.584,0.824,0.529,0.983,0.695,0.341,0.587,0.552,��,5.0,��
2022/07/17,12:50,0.586,0.824,0.529,0.985,0.695,0.341,0.585,0.551,��,7.7,��
2022/07/17,13:00,0.585,0.825,0.530,0.985,0.695,0.341,0.585,0.551,��,9.2,��
2022/07/17,13:10,0.586,0.824,0.530,0.984,0.695,0.342,0.585,0.552,��,10.7,��
2022/07/17,13:20,0.585,0.825,0.528,0.985,0.696,0.339,0.585,0.553,��,8.1,��
2022/07/17,13:30,0.587,0.825,0.529,0.984,0.698,0.341,0.584,0.552,��,9.4,��
2022/07/17,13:40,0.587,0.824,0.530,0.984,0.696,0.341,0.584,0.553,��,9.2,��
2022/07/17,13:50,0.588,0.825,0.531,0.984,0.697,0.342,0.585,0.553,��,10.5,��
2022/07/17,14:00,0.586,0.823,0.530,0.986,0.698,0.343,0.586,0.553,��,10.9,��
2022/07/17,14:10,0.587,0.826,0.530,0.984,0.698,0.343,0.586,0.553,��,9.7,��
2022/07/17,14:20,0.587,0.827,0.531,0.985,0.698,0.343,0.584,0.552,��,10.2,��
2022/07/17,14:30,0.588,0.827,0.531,0.986,0.697,0.343,0.585,0.553,��쓌,9.4,��
2022/07/17,14:40,0.588,0.827,0.530,0.988,0.698,0.344,0.585,0.552,��쓌,10.7,��
2022/07/17,14:50,0.587,0.825,0.530,0.989,0.701,0.344,0.586,0.553,��,11.0,��
2022/07/17,15:00,0.588,0.827,0.532,0.988,0.699,0.343,0.586,0.555,��쓌,11.9,��
2022/07/17,15:10,0.587,0.827,0.531,0.986,0.699,0.343,0.584,0.553,��,12.2,��
2022/07/17,15:20,0.588,0.829,0.530,0.988,0.699,0.343,0.584,0.552,��,9.8,��
2022/07/17,15:30,0.587,0.828,0.532,0.990,0.699,0.344,0.585,0.554,��,9.8,��
2022/07/17,15:40,0.588,0.828,0.532,0.986,0.700,0.345,0.585,0.554,��쓌,9.5,��
2022/07/17,15:50,0.589,0.828,0.533,0.991,0.700,0.345,0.584,0.552,��,9.1,��
2022/07/17,16:00,0.588,0.828,0.531,0.989,0.699,0.342,0.585,0.554,��,9.4,��
2022/07/17,16:10,0.589,0.828,0.531,0.990,0.701,0.342,0.585,0.554,��,10.2,��
2022/07/17,16:20,0.588,0.831,0.531,0.988,0.702,0.343,0.584,0.554,��,10.0,��
2022/07/17,16:30,0.588,0.828,0.530,0.989,0.702,0.343,0.585,0.552,��,11.6,��
2022/07/17,16:40,0.587,0.827,0.531,0.991,0.699,0.344,0.585,0.553,��,10.5,��
2022/07/17,16:50,0.588,0.827,0.531,0.991,0.701,0.343,0.586,0.553,��,10.2,��
2022/07/17,17:00,0.587,0.828,0.532,0.990,0.701,0.344,0.582,0.553,��,9.8,��
2022/07/17,17:10,0.587,0.828,0.531,0.990,0.701,0.343,0.586,0.553,��,9.0,��
2022/07/17,17:20,0.587,0.829,0.529,0.990,0.699,0.344,0.583,0.553,��,8.9,��
2022/07/17,17:30,0.587,0.827,0.531,0.988,0.700,0.344,0.584,0.553,��,9.1,��
2022/07/17,17:40,0.587,0.829,0.531,0.990,0.701,0.344,0.585,0.552,��,6.8,��
2022/07/17,17:50,0.589,0.828,0.531,0.991,0.700,0.344,0.586,0.553,��,6.0,��
2022/07/17,18:00,0.586,0.829,0.532,0.990,0.700,0.342,0.584,0.552,��,6.9,��
2022/07/17,18:10,0.588,0.831,0.530,0.990,0.701,0.343,0.584,0.554,��,8.2,��
2022/07/17,18:20,0.588,0.830,0.532,0.991,0.701,0.343,0.583,0.554,��,7.7,��
2022/07/17,18:30,0.587,0.829,0.531,0.988,0.703,0.344,0.585,0.553,��쐼,4.3,��
2022/07/17,18:40,0.587,0.831,0.533,0.992,0.704,0.344,0.586,0.553,��쐼,3.7,��
2022/07/17,18:50,0.588,0.831,0.531,0.992,0.704,0.343,0.585,0.553,��,4.5,��
2022/07/17,19:00,0.587,0.831,0.531,0.993,0.704,0.344,0.586,0.554,��,4.5,��
2022/07/17,19:10,0.588,0.831,0.532,0.992,0.702,0.343,0.584,0.554,��쐼,3.1,��
2022/07/17,19:20,0.586,0.832,0.533,0.994,0.702,0.344,0.583,0.554,�쐼,2.6,��
2022/07/17,19:30,0.585,0.830,0.532,0.992,0.703,0.343,0.585,0.553,���쐼,2.0,��
2022/07/17,19:40,0.586,0.829,0.533,0.993,0.702,0.342,0.585,0.554,���쐼,1.5,��
2022/07/17,19:50,0.587,0.829,0.532,0.995,0.703,0.344,0.585,0.554,�k�k��,2.9,��
2022/07/17,20:00,0.589,0.832,0.533,0.994,0.704,0.342,0.586,0.556,�k�k��,3.7,��
2022/07/17,20:10,0.587,0.829,0.532,0.992,0.703,0.342,0.584,0.553,�k�k��,3.5,��
2022/07/17,20:20,0.589,0.831,0.532,0.996,0.702,0.342,0.585,0.555,�k�k��,3.2,��
2022/07/17,20:30,0.589,0.832,0.534,0.993,0.704,0.341,0.585,0.557,�k��,2.0,��
2022/07/17,20:40,0.588,0.832,0.532,0.994,0.704,0.341,0.586,0.556,�k�k��,2.3,��
2022/07/17,20:50,0.588,0.833,0.534,0.992,0.703,0.342,0.586,0.553,�k�k��,1.4,��
2022/07/17,21:00,0.588,0.831,0.533,0.992,0.702,0.342,0.585,0.556,�k��,1.1,��
2022/07/17,21:10,0.589,0.830,0.532,0.993,0.702,0.341,0.586,0.555,��,0.6,��
2022/07/17,21:20,0.588,0.832,0.534,0.993,0.702,0.343,0.585,0.554,-,CALM,��
2022/07/17,21:30,0.588,0.831,0.533,0.993,0.704,0.342,0.584,0.554,-,CALM,��
2022/07/17,21:40,0.589,0.830,0.533,0.993,0.704,0.342,0.587,0.555,-,CALM,��
2022/07/17,21:50,0.588,0.829,0.532,0.995,0.703,0.342,0.584,0.553,-,CALM,��
2022/07/17,22:00,0.589,0.832,0.532,0.994,0.705,0.343,0.586,0.554,���k��,0.6,��
2022/07/17,22:10,0.589,0.830,0.534,0.993,0.703,0.341,0.585,0.555,�k�k��,0.9,��
2022/07/17,22:20,0.590,0.830,0.533,0.992,0.703,0.343,0.586,0.554,�k�k��,1.4,��
2022/07/17,22:30,0.589,0.832,0.534,0.992,0.702,0.342,0.583,0.553,�k�k��,1.5,��
2022/07/17,22:40,0.589,0.830,0.533,0.995,0.702,0.342,0.585,0.555,�k�k��,2.3,��
2022/07/17,22:50,0.590,0.831,0.534,0.995,0.704,0.341,0.585,0.555,�k�k��,2.8,��
2022/07/17,23:00,0.588,0.832,0.534,0.996,0.703,0.340,0.586,0.555,�k,2.9,��
2022/07/17,23:10,0.589,0.832,0.533,0.994,0.702,0.341,0.585,0.553,�k,2.0,��
2022/07/17,23:20,0.588,0.831,0.533,0.994,0.703,0.341,0.586,0.555,�k�k��,1.4,��
2022/07/17,23:30,0.587,0.832,0.533,0.993,0.702,0.341,0.583,0.555,�k�k��,0.8,��
2022/07/17,23:40,0.589,0.832,0.533,0.993,0.701,0.342,0.586,0.556,�k,0.9,��
2022/07/17,23:50,0.587,0.831,0.533,0.993,0.702,0.342,0.586,0.555,�k�k��,1.1,��
